SCOUT B DEB, 29168

Orbit data source: Space-Track

SCOUT B DEB, 29168 is space debris in LEO originally from a launch on Tue, 10 Aug 1965 UTC launched from the Wallops Island (WLPIS). Debris objects in space refer to the collection of defunct objects orbiting the Earth. Examples of debris include non-operational satellites, rocket bodies, and fragments generated from explosions, collisions, or faulty payload assembly.

Loading next visibility...
Identifier
29168, 1965-063S
Orbit
LEO
Country
Flag of USUS
Related business
Manufacturer
Unknown
Mission
Spacecraft
Bus & Motor
Unknown
Mass
Unknown
Launch date (UTC)
1965-08-10 (60 years ago)
Launch vehicle
Unknown
Launch site
Wallops Island (WLPIS)
Object type
Payload
Rocket body
Debris
Shape & HBR
Unknown shape, 0.1 m
Radar Cross Section
Small (<0.1 m²)

Expand to show TLE details & history
Last TLE update: 15 hours ago

TLE from 15 hours ago
0 SCOUT B DEB
1 29168U 65063S   26036.66292688  .00012178  00000-0  56857-1 0  9991
2 29168  69.3147 107.7602 0383314 238.1969 282.8451 12.55367489613720
Epoch: 2026-02-05T15:54Z
TLE epoch observation values (Epoch: 2026-02-05T15:54:36.882Z)
Latitude
21.72483°
Longitude
-95.31488°
Altitude
1,388.42 km
Speed
7.193 km/s
True Right ascension
18h 36m 36s
True Declination
21° 36' 59"
Sunlit
Object was in daylight at epoch
Visualization orbit readout
Latitude
Unknown
Longitude
Unknown
Altitude
Unknown
Speed
Unknown
Apparent Right ascension
Unknown
Apparent Declination
Unknown
Sunlit
N/A
Visualization observer readout
Local Sidereal Time
08:52:44
Azimuth
Unknown
Elevation
Unknown
Doppler factor
Unknown
Orbital elements
Apogee altitude
1,740.058 km
Perigee altitude
1,140.669 km
Semi-major axis
7,818.501 km
Eccentricity
0.03833
Inclination
69.3147°
RAAN
107.7602°
Arg. of periapsis
238.1969°
True anomaly
278.52059°
Mean anomaly
282.8451°
Eccentric anomaly
280.68697°
Mean motion
3.13948 °/min
Orbital period
114.67 mins
BSTAR
0.056857
Loading maneuver chart data...
Computing Atmospheric mass density...
Loading historical data...
Loading historical data...
Loading historical data...
Loading historical data...
Loading historical data...
Loading historical data...
Loading historical data...

Documentation

Showing up to 5 results
|